QPF
0.09 0.09 0.15 0.23 0.22 0.24 0.23 0.14 0.06 0.03 0.01 0.01 0.00 0.01 0.02 0.07 0.11 0.13 0.11 0.04 0.01 0.01 0.02 0.02 0.01 0.02 0.02 0.02 0.02 0.01 0.03 0.04 0.05 0.06 0.06 0.06 0.06 0.06 0.05 0.05 0.03 0.04 0.04 0.04 0.03 0.03 0.03 0.02 0.02
0.10 0.12 0.19 0.23 0.23 0.26 0.22 0.10 0.05 0.02 0.01 0.00 0.00 0.00 0.01 0.01 0.01 0.03 0.06 0.03 0.00 0.01 0.01 0.02 0.01 0.01 0.01 0.01 0.02 0.02 0.03 0.03 0.05 0.05 0.06 0.06 0.06 0.06 0.06 0.06 0.05 0.05 0.06 0.05 0.05 0.05 0.05 0.04 0.03
0.11 0.19 0.22 0.24 0.25 0.26 0.20 0.08 0.03 0.00 0.00 0.00 0.00 0.00 0.00 0.02 0.02 0.04 0.07 0.03 0.01 0.00 0.01 0.02 0.01 0.01 0.01 0.01 0.02 0.02 0.03 0.03 0.04 0.04 0.05 0.06 0.07 0.06 0.07 0.07 0.06 0.06 0.08 0.09 0.08 0.07 0.06 0.05 0.05
0.18 0.23 0.21 0.24 0.26 0.14 0.07 0.03 0.01 0.00 0.00 0.00 0.00 0.01 0.01 0.01 0.01 0.02 0.03 0.00 0.00 0.00 0.01 0.01 0.00 0.01 0.01 0.02 0.02 0.02 0.03 0.03 0.04 0.04 0.05 0.06 0.07 0.07 0.06 0.07 0.07 0.07 0.08 0.09 0.10 0.09 0.07 0.07 0.06
0.29 0.26 0.27 0.29 0.21 0.09 0.02 0.00 0.00 0.00 0.00 0.00 0.00 0.01 0.02 0.01 0.00 0.00 0.00 0.00 0.00 0.00 0.00 0.00 0.00 0.01 0.01 0.01 0.01 0.02 0.02 0.03 0.04 0.04 0.05 0.07 0.08 0.08 0.07 0.08 0.09 0.09 0.08 0.09 0.10 0.11 0.10 0.09 0.09
0.31 0.28 0.30 0.29 0.23 0.10 0.02 0.00 0.00 0.00 0.00 0.00 0.00 0.03 0.03 0.01 0.01 0.00 0.00 0.00 0.00 0.00 0.01 0.00 0.00 0.01 0.01 0.01 0.01 0.01 0.01 0.01 0.02 0.03 0.03 0.04 0.04 0.04 0.05 0.06 0.07 0.08 0.09 0.10 0.09 0.11 0.12 0.09 0.08
0.31 0.31 0.26 0.20 0.20 0.11 0.03 0.00 0.00 0.01 0.01 0.01 0.01 0.03 0.03 0.02 0.02 0.00 0.00 0.00 0.00 0.00 0.01 0.01 0.00 0.00 0.00 0.00 0.00 0.00 0.00 0.00 0.01 0.01 0.01 0.01 0.02 0.03 0.04 0.05 0.05 0.06 0.07 0.07 0.08 0.11 0.12 0.10 0.08
0.24 0.28 0.19 0.11 0.11 0.11 0.02 0.00 0.00 0.01 0.01 0.01 0.01 0.02 0.03 0.02 0.01 0.00 0.00 0.00 0.00 0.00 0.00 0.00 0.00 0.00 0.00 0.00 0.00 0.00 0.00 0.00 0.00 0.00 0.01 0.02 0.02 0.02 0.02 0.03 0.03 0.04 0.05 0.06 0.07 0.10 0.13 0.13 0.11
0.21 0.32 0.25 0.14 0.11 0.09 0.02 0.01 0.01 0.00 0.00 0.01 0.01 0.02 0.01 0.01 0.00 0.00 0.00 0.00 0.00 0.00 0.00 0.00 0.00 0.00 0.00 0.00 0.00 0.00 0.00 0.00 0.00 0.00 0.01 0.01 0.01 0.02 0.03 0.03 0.03 0.04 0.04 0.06 0.09 0.12 0.14 0.15 0.11
0.23 0.28 0.16 0.07 0.04 0.03 0.02 0.01 0.01 0.00 0.01 0.02 0.01 0.02 0.02 0.01 0.01 0.00 0.00 0.00 0.00 0.00 0.00 0.00 0.00 0.00 0.00 0.00 0.00 0.00 0.00 0.00 0.00 0.00 0.01 0.01 0.02 0.03 0.03 0.03 0.03 0.04 0.05 0.05 0.07 0.08 0.09 0.10 0.10
0.17 0.14 0.10 0.07 0.01 0.01 0.01 0.01 0.01 0.00 0.02 0.05 0.06 0.03 0.02 0.01 0.01 0.00 0.00 0.00 0.00 0.00 0.00 0.00 0.00 0.00 0.00 0.00 0.00 0.00 0.00 0.00 0.00 0.00 0.00 0.00 0.01 0.02 0.03 0.04 0.04 0.05 0.05 0.07 0.09 0.09 0.07 0.06 0.09
0.16 0.08 0.06 0.05 0.01 0.00 0.00 0.01 0.01 0.00 0.01 0.03 0.03 0.01 0.01 0.00 0.00 0.00 0.00 0.00 0.00 0.00 0.00 0.00 0.00 0.00 0.00 0.00 0.00 0.00 0.00 0.00 0.00 0.00 0.00 0.00 0.01 0.02 0.04 0.04 0.05 0.05 0.07 0.10 0.14 0.16 0.12 0.10 0.10
0.17 0.12 0.07 0.04 0.01 0.00 0.00 0.01 0.01 0.00 0.00 0.00 0.01 0.01 0.01 0.00 0.00 0.00 0.00 0.00 0.00 0.00 0.00 0.00 0.00 0.00 0.00 0.00 0.00 0.00 0.00 0.00 0.00 0.00 0.00 0.00 0.01 0.02 0.03 0.04 0.05 0.05 0.06 0.08 0.09 0.12 0.13 0.12 0.12
0.15 0.08 0.06 0.03 0.01 0.01 0.01 0.02 0.02 0.00 0.00 0.00 0.01 0.00 0.00 0.00 0.00 0.00 0.00 0.00 0.00 0.00 0.00 0.00 0.00 0.00 0.00 0.00 0.00 0.00 0.00 0.00 0.00 0.00 0.01 0.01 0.02 0.01 0.02 0.03 0.05 0.06 0.06 0.07 0.07 0.08 0.10 0.11 0.13
0.14 0.09 0.06 0.02 0.01 0.01 0.02 0.03 0.03 0.01 0.00 0.01 0.01 0.01 0.02 0.01 0.01 0.00 0.00 0.00 0.00 0.00 0.00 0.00 0.00 0.00 0.00 0.00 0.00 0.00 0.00 0.00 0.00 0.01 0.01 0.01 0.01 0.01 0.02 0.04 0.06 0.06 0.06 0.06 0.08 0.08 0.10 0.10 0.11
0.06 0.08 0.08 0.03 0.02 0.01 0.02 0.05 0.02 0.01 0.01 0.02 0.01 0.00 0.01 0.01 0.01 0.00 0.00 0.00 0.00 0.00 0.00 0.00 0.00 0.00 0.00 0.00 0.00 0.00 0.00 0.00 0.00 0.01 0.01 0.01 0.01 0.01 0.03 0.06 0.06 0.06 0.06 0.05 0.06 0.08 0.10 0.12 0.12
0.04 0.05 0.05 0.05 0.02 0.00 0.02 0.04 0.01 0.00 0.00 0.00 0.01 0.00 0.00 0.00 0.00 0.00 0.00 0.00 0.00 0.00 0.00 0.00 0.00 0.00 0.00 0.00 0.00 0.00 0.00 0.00 0.01 0.01 0.02 0.02 0.02 0.02 0.03 0.06 0.07 0.06 0.07 0.06 0.05 0.08 0.09 0.12 0.14
0.05 0.02 0.05 0.08 0.03 0.01 0.00 0.01 0.01 0.01 0.00 0.00 0.00 0.00 0.00 0.00 0.00 0.00 0.00 0.00 0.00 0.00 0.00 0.00 0.00 0.00 0.00 0.00 0.00 0.01 0.01 0.01 0.01 0.01 0.01 0.01 0.02 0.02 0.03 0.05 0.07 0.07 0.10 0.09 0.07 0.09 0.09 0.10 0.11
0.06 0.03 0.03 0.06 0.04 0.01 0.00 0.00 0.01 0.00 0.00 0.00 0.00 0.00 0.00 0.00 0.00 0.00 0.00 0.00 0.00 0.00 0.00 0.00 0.00 0.00 0.00 0.00 0.01 0.01 0.01 0.01 0.01 0.01 0.01 0.01 0.02 0.03 0.03 0.04 0.06 0.06 0.07 0.07 0.06 0.08 0.08 0.08 0.09
0.05 0.02 0.02 0.03 0.03 0.01 0.00 0.00 0.00 0.00 0.00 0.00 0.00 0.00 0.00 0.00 0.00 0.00 0.00 0.00 0.00 0.00 0.00 0.00 0.00 0.00 0.00 0.00 0.01 0.00 0.01 0.00 0.01 0.01 0.01 0.01 0.02 0.03 0.03 0.03 0.04 0.04 0.05 0.05 0.05 0.06 0.07 0.07 0.07
0.02 0.03 0.04 0.05 0.03 0.01 0.00 0.00 0.00 0.00 0.00 0.00 0.00 0.00 0.00 0.00 0.00 0.00 0.00 0.00 0.00 0.00 0.00 0.00 0.00 0.00 0.00 0.00 0.00 0.01 0.01 0.01 0.01 0.01 0.01 0.01 0.01 0.02 0.03 0.02 0.03 0.04 0.04 0.05 0.05 0.06 0.06 0.06 0.06
0.03 0.03 0.02 0.02 0.00 0.00 0.00 0.00 0.00 0.00 0.00 0.00 0.00 0.00 0.00 0.00 0.00 0.00 0.00 0.00 0.00 0.00 0.00 0.00 0.00 0.00 0.00 0.00 0.00 0.00 0.00 0.00 0.00 0.00 0.01 0.01 0.01 0.01 0.01 0.02 0.03 0.03 0.04 0.04 0.03 0.04 0.06 0.05 0.07
0.03 0.03 0.00 0.00 0.00 0.00 0.00 0.00 0.00 0.00 0.00 0.00 0.00 0.00 0.00 0.00 0.00 0.00 0.00 0.00 0.00 0.00 0.00 0.00 0.00 0.00 0.00 0.00 0.00 0.00 0.00 0.00 0.00 0.00 0.00 0.01 0.01 0.00 0.00 0.01 0.02 0.03 0.04 0.04 0.02 0.03 0.04 0.05 0.06
0.01 0.00 0.00 0.00 0.00 0.00 0.00 0.00 0.00 0.00 0.00 0.00 0.00 0.00 0.00 0.00 0.00 0.00 0.00 0.00 0.00 0.00 0.00 0.00 0.00 0.00 0.00 0.00 0.00 0.00 0.00 0.00 0.00 0.00 0.00 0.00 0.00 0.00 0.00 0.01 0.02 0.03 0.04 0.03 0.02 0.02 0.02 0.03 0.04
0.00 0.00 0.01 0.02 0.01 0.00 0.00 0.00 0.00 0.00 0.00 0.00 0.00 0.00 0.00 0.00 0.00 0.00 0.00 0.00 0.00 0.00 0.00 0.00 0.00 0.00 0.00 0.00 0.00 0.00 0.00 0.00 0.00 0.00 0.00 0.00 0.00 0.00 0.00 0.00 0.01 0.02 0.02 0.02 0.02 0.02 0.01 0.02 0.03
0.00 0.00 0.02 0.04 0.02 0.01 0.00 0.00 0.00 0.00 0.00 0.00 0.00 0.00 0.00 0.00 0.00 0.00 0.00 0.00 0.00 0.00 0.00 0.00 0.00 0.00 0.00 0.00 0.00 0.00 0.00 0.00 0.00 0.00 0.00 0.00 0.00 0.00 0.00 0.00 0.00 0.00 0.01 0.01 0.02 0.02 0.02 0.01 0.02
0.00 0.00 0.00 0.00 0.00 0.00 0.00 0.00 0.00 0.00 0.00 0.00 0.00 0.00 0.00 0.00 0.00 0.00 0.00 0.00 0.00 0.00 0.00 0.00 0.00 0.00 0.00 0.00 0.00 0.00 0.00 0.00 0.00 0.00 0.00 0.00 0.00 0.00 0.00 0.00 0.00 0.00 0.00 0.01 0.02 0.03 0.02 0.02 0.02
0.00 0.00 0.00 0.00 0.00 0.00 0.00 0.00 0.00 0.00 0.00 0.00 0.00 0.00 0.00 0.00 0.00 0.00 0.00 0.00 0.00 0.00 0.00 0.00 0.00 0.00 0.00 0.00 0.00 0.00 0.00 0.00 0.00 0.00 0.00 0.00 0.00 0.00 0.00 0.00 0.00 0.01 0.00 0.00 0.00 0.01 0.02 0.02 0.02
0.00 0.00 0.00 0.00 0.00 0.00 0.00 0.00 0.00 0.00 0.00 0.00 0.00 0.00 0.00 0.00 0.00 0.00 0.00 0.00 0.00 0.00 0.00 0.00 0.00 0.00 0.00 0.00 0.00 0.00 0.00 0.00 0.00 0.00 0.00 0.00 0.00 0.00 0.00 0.00 0.00 0.01 0.01 0.00 0.00 0.01 0.01 0.02 0.03
0.00 0.00 0.00 0.00 0.00 0.00 0.00 0.00 0.00 0.00 0.00 0.00 0.00 0.00 0.00 0.00 0.00 0.00 0.00 0.00 0.00 0.00 0.00 0.00 0.00 0.00 0.00 0.00 0.00 0.00 0.00 0.00 0.00 0.00 0.00 0.00 0.00 0.00 0.00 0.00 0.00 0.00 0.01 0.01 0.01 0.01 0.01 0.01 0.02
MSLP
1009.75 1010.60 1011.56 1012.48 1013.19 1013.56 1013.53 1013.10 1012.36 1011.46 1010.62 1009.99 1009.70 1009.77 1010.14 1010.68 1011.23 1011.64 1011.80 1011.70 1011.39 1010.98 1010.62 1010.40 1010.41 1010.63 1010.99 1011.39 1011.74 1011.96 1012.02 1011.96 1011.85 1011.76 1011.77 1011.90 1012.13 1012.41 1012.67 1012.84 1012.90 1012.85 1012.73 1012.60 1012.52 1012.51 1012.58 1012.70 1012.81
1010.05 1011.00 1011.96 1012.79 1013.33 1013.48 1013.21 1012.56 1011.67 1010.72 1009.91 1009.39 1009.25 1009.49 1010.01 1010.65 1011.25 1011.66 1011.79 1011.65 1011.31 1010.91 1010.57 1010.41 1010.49 1010.76 1011.17 1011.59 1011.94 1012.14 1012.19 1012.11 1011.99 1011.90 1011.90 1012.02 1012.23 1012.47 1012.68 1012.80 1012.81 1012.72 1012.59 1012.47 1012.41 1012.44 1012.54 1012.69 1012.83
1010.42 1011.40 1012.30 1012.98 1013.31 1013.22 1012.72 1011.91 1010.92 1009.98 1009.25 1008.87 1008.90 1009.29 1009.92 1010.62 1011.23 1011.61 1011.71 1011.54 1011.20 1010.82 1010.54 1010.45 1010.60 1010.93 1011.36 1011.80 1012.13 1012.31 1012.34 1012.24 1012.11 1012.02 1012.03 1012.13 1012.31 1012.50 1012.66 1012.72 1012.68 1012.56 1012.42 1012.30 1012.27 1012.33 1012.47 1012.65 1012.80
1010.85 1011.79 1012.56 1013.05 1013.15 1012.83 1012.15 1011.22 1010.22 1009.34 1008.74 1008.53 1008.71 1009.22 1009.92 1010.64 1011.22 1011.54 1011.58 1011.39 1011.06 1010.73 1010.53 1010.52 1010.73 1011.11 1011.56 1011.98 1012.28 1012.43 1012.42 1012.32 1012.19 1012.10 1012.10 1012.20 1012.35 1012.51 1012.61 1012.62 1012.53 1012.38 1012.23 1012.13 1012.12 1012.21 1012.38 1012.58 1012.74
1011.29 1012.12 1012.73 1012.99 1012.86 1012.35 1011.55 1010.58 1009.63 1008.88 1008.45 1008.40 1008.72 1009.31 1010.03 1010.72 1011.22 1011.47 1011.45 1011.23 1010.92 1010.65 1010.53 1010.59 1010.87 1011.27 1011.71 1012.10 1012.35 1012.45 1012.41 1012.29 1012.17 1012.10 1012.11 1012.21 1012.34 1012.46 1012.52 1012.48 1012.36 1012.20 1012.04 1011.95 1011.96 1012.08 1012.27 1012.48 1012.65
1011.68 1012.36 1012.76 1012.80 1012.47 1011.82 1010.96 1010.03 1009.19 1008.61 1008.37 1008.50 1008.93 1009.56 1010.25 1010.86 1011.26 1011.40 1011.32 1011.08 1010.80 1010.59 1010.54 1010.68 1010.99 1011.39 1011.80 1012.13 1012.32 1012.37 1012.30 1012.17 1012.05 1012.00 1012.04 1012.14 1012.27 1012.36 1012.39 1012.32 1012.17 1012.00 1011.84 1011.77 1011.80 1011.94 1012.14 1012.35 1012.51
1011.95 1012.45 1012.63 1012.47 1011.98 1011.25 1010.40 1009.57 1008.91 1008.53 1008.49 1008.76 1009.27 1009.91 1010.53 1011.02 1011.30 1011.35 1011.20 1010.95 1010.71 1010.56 1010.57 1010.76 1011.08 1011.46 1011.82 1012.07 1012.19 1012.18 1012.08 1011.95 1011.86 1011.83 1011.90 1012.01 1012.14 1012.22 1012.22 1012.12 1011.96 1011.77 1011.63 1011.58 1011.63 1011.78 1011.98 1012.19 1012.34
1012.05 1012.36 1012.34 1012.01 1011.42 1010.67 1009.89 1009.21 1008.75 1008.58 1008.71 1009.10 1009.65 1010.26 1010.79 1011.16 1011.32 1011.28 1011.09 1010.85 1010.64 1010.56 1010.63 1010.84 1011.16 1011.49 1011.78 1011.95 1012.00 1011.94 1011.82 1011.70 1011.63 1011.64 1011.73 1011.86 1011.98 1012.04 1012.01 1011.89 1011.72 1011.54 1011.41 1011.37 1011.44 1011.61 1011.82 1012.02 1012.16
1011.96 1012.09 1011.91 1011.46 1010.82 1010.10 1009.44 1008.93 1008.66 1008.68 1008.95 1009.41 1009.98 1010.52 1010.96 1011.22 1011.28 1011.17 1010.97 1010.76 1010.61 1010.59 1010.70 1010.93 1011.22 1011.50 1011.70 1011.80 1011.79 1011.69 1011.56 1011.46 1011.43 1011.48 1011.59 1011.72 1011.83 1011.86 1011.80 1011.66 1011.47 1011.30 1011.18 1011.17 1011.26 1011.44 1011.66 1011.86 1011.99
1011.71 1011.69 1011.38 1010.86 1010.23 1009.59 1009.05 1008.71 1008.61 1008.77 1009.14 1009.63 1010.16 1010.63 1010.97 1011.14 1011.14 1011.02 1010.84 1010.68 1010.61 1010.65 1010.80 1011.03 1011.28 1011.50 1011.63 1011.66 1011.59 1011.48 1011.36 1011.29 1011.30 1011.38 1011.50 1011.63 1011.72 1011.72 1011.62 1011.45 1011.26 1011.08 1010.99 1011.00 1011.11 1011.31 1011.54 1011.74 1011.88
1011.35 1011.22 1010.85 1010.31 1009.72 1009.17 1008.77 1008.57 1008.59 1008.83 1009.23 1009.70 1010.16 1010.55 1010.80 1010.91 1010.89 1010.80 1010.68 1010.61 1010.62 1010.73 1010.91 1011.14 1011.35 1011.50 1011.57 1011.55 1011.46 1011.35 1011.25 1011.22 1011.27 1011.37 1011.50 1011.62 1011.67 1011.63 1011.50 1011.31 1011.10 1010.93 1010.85 1010.89 1011.03 1011.25 1011.49 1011.70 1011.83
1010.96 1010.77 1010.38 1009.87 1009.35 1008.90 1008.61 1008.50 1008.59 1008.85 1009.21 1009.61 1009.98 1010.27 1010.46 1010.54 1010.55 1010.51 1010.50 1010.53 1010.64 1010.81 1011.02 1011.24 1011.42 1011.52 1011.54 1011.49 1011.39 1011.30 1011.24 1011.25 1011.33 1011.45 1011.59 1011.68 1011.69 1011.62 1011.46 1011.24 1011.03 1010.87 1010.81 1010.87 1011.03 1011.26 1011.51 1011.73 1011.87
1010.61 1010.41 1010.04 1009.60 1009.16 1008.81 1008.59 1008.53 1008.62 1008.83 1009.10 1009.39 1009.65 1009.85 1009.99 1010.07 1010.13 1010.19 1010.29 1010.44 1010.64 1010.88 1011.11 1011.32 1011.47 1011.53 1011.52 1011.46 1011.38 1011.31 1011.30 1011.35 1011.46 1011.60 1011.72 1011.79 1011.78 1011.67 1011.49 1011.27 1011.06 1010.92 1010.88 1010.95 1011.12 1011.36 1011.61 1011.82 1011.96
1010.38 1010.21 1009.89 1009.53 1009.18 1008.90 1008.72 1008.65 1008.69 1008.79 1008.94 1009.09 1009.23 1009.35 1009.46 1009.56 1009.69 1009.86 1010.07 1010.33 1010.61 1010.90 1011.16 1011.36 1011.48 1011.53 1011.51 1011.46 1011.41 1011.38 1011.41 1011.50 1011.63 1011.77 1011.88 1011.93 1011.89 1011.77 1011.59 1011.38 1011.19 1011.07 1011.05 1011.13 1011.29 1011.51 1011.74 1011.93 1012.05
1010.30 1010.16 1009.92 1009.64 1009.36 1009.13 1008.96 1008.85 1008.79 1008.76 1008.75 1008.76 1008.78 1008.83 1008.92 1009.06 1009.27 1009.54 1009.85 1010.20 1010.55 1010.87 1011.14 1011.33 1011.45 1011.49 1011.49 1011.47 1011.46 1011.48 1011.55 1011.66 1011.80 1011.93 1012.03 1012.06 1012.01 1011.90 1011.74 1011.56 1011.41 1011.31 1011.30 1011.37 1011.51 1011.68 1011.86 1012.01 1012.11
1010.34 1010.26 1010.09 1009.88 1009.66 1009.45 1009.26 1009.07 1008.89 1008.72 1008.56 1008.43 1008.35 1008.35 1008.44 1008.62 1008.90 1009.25 1009.65 1010.06 1010.45 1010.79 1011.06 1011.25 1011.37 1011.43 1011.46 1011.49 1011.53 1011.60 1011.71 1011.84 1011.97 1012.09 1012.16 1012.18 1012.14 1012.04 1011.92 1011.79 1011.68 1011.61 1011.60 1011.65 1011.74 1011.85 1011.96 1012.05 1012.09
1010.47 1010.42 1010.32 1010.17 1009.99 1009.79 1009.56 1009.29 1008.99 1008.68 1008.38 1008.13 1007.97 1007.93 1008.03 1008.25 1008.58 1009.00 1009.46 1009.91 1010.32 1010.66 1010.93 1011.13 1011.26 1011.36 1011.45 1011.54 1011.64 1011.76 1011.89 1012.03 1012.14 1012.23 1012.28 1012.29 1012.25 1012.19 1012.11 1012.04 1011.98 1011.94 1011.93 1011.94 1011.96 1012.00 1012.02 1012.03 1012.02
1010.61 1010.61 1010.55 1010.44 1010.29 1010.08 1009.80 1009.45 1009.04 1008.60 1008.19 1007.86 1007.64 1007.58 1007.69 1007.95 1008.33 1008.79 1009.28 1009.74 1010.16 1010.50 1010.77 1010.98 1011.15 1011.31 1011.47 1011.63 1011.80 1011.97 1012.12 1012.25 1012.34 1012.39 1012.41 1012.40 1012.38 1012.35 1012.32 1012.30 1012.29 1012.28 1012.26 1012.23 1012.18 1012.13 1012.06 1011.99 1011.93
1010.72 1010.74 1010.72 1010.66 1010.52 1010.30 1009.97 1009.55 1009.04 1008.50 1008.00 1007.60 1007.34 1007.28 1007.40 1007.69 1008.11 1008.60 1009.10 1009.57 1009.98 1010.32 1010.60 1010.84 1011.06 1011.29 1011.53 1011.77 1012.01 1012.23 1012.40 1012.52 1012.57 1012.58 1012.57 1012.54 1012.52 1012.52 1012.54 1012.57 1012.60 1012.61 1012.58 1012.51 1012.40 1012.27 1012.12 1011.98 1011.87
1010.75 1010.80 1010.82 1010.80 1010.68 1010.45 1010.08 1009.59 1009.00 1008.38 1007.81 1007.35 1007.07 1007.00 1007.13 1007.45 1007.90 1008.41 1008.92 1009.39 1009.79 1010.14 1010.43 1010.71 1010.99 1011.30 1011.63 1011.96 1012.27 1012.52 1012.71 1012.81 1012.83 1012.80 1012.75 1012.69 1012.67 1012.69 1012.74 1012.82 1012.88 1012.91 1012.88 1012.79 1012.64 1012.44 1012.24 1012.05 1011.91
1010.68 1010.78 1010.86 1010.88 1010.80 1010.57 1010.18 1009.63 1008.97 1008.27 1007.63 1007.12 1006.81 1006.73 1006.87 1007.21 1007.67 1008.19 1008.71 1009.18 1009.60 1009.95 1010.28 1010.60 1010.95 1011.33 1011.74 1012.14 1012.51 1012.81 1013.00 1013.09 1013.09 1013.02 1012.93 1012.85 1012.82 1012.85 1012.93 1013.03 1013.13 1013.18 1013.15 1013.05 1012.88 1012.66 1012.43 1012.23 1012.09
1010.54 1010.72 1010.88 1010.97 1010.94 1010.72 1010.31 1009.71 1008.98 1008.21 1007.49 1006.92 1006.56 1006.46 1006.60 1006.94 1007.41 1007.95 1008.48 1008.96 1009.39 1009.77 1010.12 1010.49 1010.89 1011.34 1011.81 1012.27 1012.69 1013.01 1013.22 1013.30 1013.27 1013.18 1013.06 1012.96 1012.93 1012.96 1013.05 1013.18 1013.30 1013.37 1013.37 1013.28 1013.11 1012.90 1012.69 1012.51 1012.40
1010.37 1010.66 1010.93 1011.12 1011.15 1010.96 1010.53 1009.89 1009.09 1008.23 1007.43 1006.78 1006.36 1006.21 1006.32 1006.65 1007.13 1007.68 1008.23 1008.73 1009.18 1009.59 1009.97 1010.37 1010.81 1011.29 1011.80 1012.29 1012.73 1013.07 1013.29 1013.37 1013.34 1013.23 1013.10 1013.00 1012.96 1012.99 1013.10 1013.24 1013.38 1013.48 1013.50 1013.44 1013.31 1013.15 1012.98 1012.85 1012.79
1010.22 1010.64 1011.05 1011.35 1011.46 1011.31 1010.88 1010.19 1009.32 1008.36 1007.46 1006.71 1006.21 1005.99 1006.06 1006.37 1006.84 1007.40 1007.97 1008.50 1008.98 1009.41 1009.82 1010.24 1010.68 1011.17 1011.68 1012.17 1012.61 1012.95 1013.17 1013.26 1013.23 1013.13 1013.01 1012.92 1012.89 1012.93 1013.04 1013.19 1013.35 1013.47 1013.53 1013.52 1013.44 1013.33 1013.23 1013.16 1013.17
1010.12 1010.69 1011.24 1011.65 1011.84 1011.73 1011.30 1010.58 1009.64 1008.59 1007.58 1006.73 1006.13 1005.83 1005.84 1006.11 1006.57 1007.14 1007.73 1008.29 1008.80 1009.25 1009.67 1010.08 1010.51 1010.97 1011.44 1011.91 1012.32 1012.65 1012.86 1012.96 1012.96 1012.89 1012.79 1012.73 1012.71 1012.77 1012.89 1013.06 1013.23 1013.37 1013.46 1013.49 1013.47 1013.43 1013.39 1013.39 1013.45
1010.10 1010.81 1011.47 1011.99 1012.25 1012.18 1011.75 1011.00 1010.00 1008.87 1007.77 1006.82 1006.12 1005.74 1005.68 1005.90 1006.34 1006.91 1007.52 1008.10 1008.63 1009.10 1009.52 1009.91 1010.31 1010.71 1011.13 1011.54 1011.90 1012.20 1012.41 1012.52 1012.55 1012.52 1012.47 1012.45 1012.47 1012.55 1012.68 1012.85 1013.03 1013.19 1013.30 1013.37 1013.40 1013.41 1013.43 1013.49 1013.59
1010.16 1010.95 1011.69 1012.27 1012.58 1012.53 1012.11 1011.34 1010.31 1009.13 1007.96 1006.93 1006.16 1005.70 1005.57 1005.75 1006.16 1006.72 1007.33 1007.93 1008.48 1008.96 1009.37 1009.74 1010.09 1010.43 1010.78 1011.11 1011.43 1011.69 1011.88 1012.01 1012.07 1012.10 1012.11 1012.13 1012.19 1012.30 1012.45 1012.63 1012.81 1012.97 1013.10 1013.19 1013.25 1013.30 1013.36 1013.44 1013.57
1010.25 1011.06 1011.82 1012.41 1012.73 1012.69 1012.28 1011.52 1010.48 1009.29 1008.09 1007.03 1006.20 1005.68 1005.50 1005.63 1006.00 1006.53 1007.15 1007.76 1008.32 1008.80 1009.21 1009.56 1009.86 1010.15 1010.43 1010.70 1010.96 1011.19 1011.37 1011.51 1011.62 1011.69 1011.76 1011.84 1011.95 1012.08 1012.25 1012.43 1012.61 1012.77 1012.90 1013.00 1013.07 1013.13 1013.20 1013.29 1013.42
1010.33 1011.08 1011.78 1012.32 1012.61 1012.57 1012.17 1011.44 1010.44 1009.29 1008.11 1007.05 1006.21 1005.66 1005.43 1005.50 1005.83 1006.33 1006.92 1007.53 1008.10 1008.59 1009.00 1009.34 1009.63 1009.88 1010.12 1010.35 1010.56 1010.76 1010.94 1011.10 1011.24 1011.36 1011.48 1011.61 1011.76 1011.92 1012.11 1012.29 1012.46 1012.62 1012.74 1012.83 1012.90 1012.95 1013.01 1013.09 1013.20
1010.34 1010.95 1011.52 1011.97 1012.19 1012.13 1011.75 1011.07 1010.16 1009.09 1007.99 1006.98 1006.16 1005.60 1005.33 1005.35 1005.61 1006.06 1006.61 1007.20 1007.76 1008.27 1008.70 1009.05 1009.35 1009.61 1009.83 1010.05 1010.25 1010.44 1010.62 1010.80 1010.96 1011.12 1011.28 1011.45 1011.62 1011.81 1012.01 1012.19 1012.37 1012.51 1012.62 1012.70 1012.76 1012.80 1012.85 1012.90 1012.98
Thickness
5796 5796 5793 5781 5762 5750 5749 5764 5780 5786 5793 5803 5807 5803 5790 5780 5770 5756 5779 5793 5792 5788 5783 5778 5775 5772 5770 5768 5766 5764 5763 5761 5760 5758 5757 5757 5756 5755 5755 5755 5755 5755 5755 5755 5756 5756 5757 5757 5758
5798 5796 5786 5771 5752 5743 5751 5772 5779 5787 5798 5806 5806 5802 5791 5782 5785 5779 5782 5789 5790 5787 5781 5775 5771 5768 5766 5764 5762 5760 5758 5757 5755 5754 5753 5752 5752 5751 5751 5751 5751 5751 5751 5752 5753 5753 5754 5754 5755
5798 5794 5776 5763 5755 5749 5756 5777 5785 5795 5805 5804 5799 5798 5787 5779 5783 5780 5784 5789 5787 5783 5776 5770 5766 5763 5761 5759 5757 5755 5753 5752 5751 5749 5748 5747 5747 5747 5747 5747 5747 5748 5748 5749 5749 5750 5751 5751 5752
5793 5782 5773 5759 5755 5767 5777 5785 5793 5793 5798 5803 5798 5786 5783 5788 5786 5784 5787 5787 5783 5778 5772 5766 5762 5759 5756 5754 5752 5750 5748 5747 5745 5744 5743 5743 5742 5742 5742 5742 5743 5744 5744 5745 5746 5747 5748 5749 5750
5788 5772 5759 5756 5761 5776 5790 5797 5798 5791 5791 5796 5793 5777 5771 5784 5789 5787 5785 5783 5778 5774 5770 5763 5759 5756 5753 5750 5748 5745 5743 5742 5740 5739 5738 5738 5737 5737 5737 5737 5738 5739 5739 5741 5742 5744 5745 5746 5747
5773 5767 5752 5750 5758 5774 5790 5799 5797 5790 5789 5792 5788 5775 5770 5784 5783 5782 5782 5779 5776 5771 5768 5762 5757 5754 5751 5748 5744 5742 5739 5738 5736 5735 5734 5733 5732 5732 5732 5733 5734 5734 5735 5736 5738 5740 5742 5744 5745
5766 5760 5755 5758 5757 5767 5785 5799 5793 5787 5784 5787 5791 5773 5769 5777 5780 5782 5779 5777 5773 5770 5766 5761 5757 5753 5749 5746 5742 5740 5737 5735 5733 5731 5730 5729 5728 5728 5728 5728 5729 5730 5730 5732 5733 5736 5738 5740 5741
5776 5763 5759 5763 5760 5765 5786 5795 5796 5790 5785 5795 5794 5774 5765 5773 5781 5780 5776 5773 5769 5767 5764 5761 5757 5753 5749 5745 5741 5738 5736 5733 5731 5728 5727 5726 5725 5725 5725 5725 5725 5725 5726 5727 5729 5731 5734 5736 5738
5779 5755 5748 5758 5761 5768 5787 5788 5793 5799 5793 5791 5791 5784 5781 5781 5780 5774 5769 5767 5764 5763 5762 5760 5757 5753 5750 5747 5742 5739 5736 5732 5729 5727 5725 5723 5723 5724 5723 5722 5721 5721 5722 5723 5725 5727 5730 5732 5734
5765 5745 5752 5769 5779 5779 5785 5786 5788 5786 5781 5778 5779 5781 5782 5779 5774 5768 5764 5762 5760 5759 5759 5759 5756 5753 5750 5746 5742 5738 5735 5731 5729 5726 5724 5721 5721 5720 5720 5719 5718 5717 5717 5718 5720 5722 5725 5728 5731
5764 5757 5765 5776 5786 5788 5784 5785 5789 5780 5769 5773 5772 5773 5776 5774 5772 5768 5765 5763 5760 5760 5757 5757 5755 5752 5749 5744 5741 5737 5734 5731 5728 5724 5722 5719 5718 5716 5716 5715 5714 5714 5714 5714 5716 5718 5721 5724 5728
5758 5765 5771 5774 5785 5785 5783 5784 5782 5780 5777 5786 5784 5781 5777 5772 5770 5768 5766 5764 5762 5759 5756 5754 5752 5750 5746 5742 5738 5736 5732 5729 5725 5722 5719 5716 5713 5711 5711 5710 5710 5710 5710 5711 5712 5714 5718 5722 5725
5752 5759 5773 5777 5782 5785 5784 5781 5780 5782 5790 5791 5787 5781 5775 5773 5772 5771 5770 5767 5763 5758 5756 5753 5750 5747 5744 5740 5736 5735 5731 5727 5724 5719 5716 5714 5710 5708 5706 5706 5706 5706 5706 5707 5708 5711 5714 5717 5721
5754 5762 5769 5777 5780 5781 5777 5778 5779 5782 5791 5787 5782 5778 5776 5774 5772 5770 5768 5765 5763 5759 5756 5752 5748 5746 5743 5740 5736 5732 5729 5725 5721 5717 5714 5711 5708 5705 5703 5701 5701 5701 5702 5703 5704 5707 5709 5712 5717
5758 5755 5762 5770 5777 5779 5776 5766 5775 5787 5789 5782 5780 5778 5776 5774 5772 5769 5769 5765 5764 5760 5757 5751 5748 5745 5742 5737 5733 5730 5727 5723 5719 5714 5711 5708 5705 5702 5699 5697 5696 5696 5697 5698 5700 5702 5705 5708 5712
5755 5751 5745 5762 5772 5776 5765 5750 5775 5788 5784 5778 5778 5778 5774 5773 5773 5773 5772 5768 5765 5761 5756 5751 5748 5743 5740 5735 5731 5728 5725 5720 5716 5711 5707 5704 5701 5699 5696 5693 5692 5692 5693 5694 5695 5696 5698 5701 5705
5749 5742 5743 5749 5767 5773 5765 5755 5773 5787 5782 5778 5778 5778 5775 5773 5773 5774 5772 5768 5764 5760 5755 5751 5746 5741 5738 5734 5731 5727 5723 5718 5714 5709 5704 5700 5697 5694 5693 5690 5689 5689 5689 5689 5691 5692 5694 5696 5700
5734 5743 5745 5745 5763 5769 5764 5764 5775 5784 5783 5780 5780 5778 5775 5773 5773 5775 5772 5768 5763 5758 5754 5750 5744 5740 5736 5732 5730 5724 5720 5716 5712 5706 5701 5697 5693 5691 5690 5688 5687 5685 5684 5684 5686 5687 5691 5693 5697
5739 5742 5744 5755 5770 5765 5763 5767 5777 5784 5783 5780 5779 5778 5776 5774 5778 5776 5770 5765 5760 5755 5752 5749 5744 5740 5734 5729 5724 5719 5715 5712 5708 5704 5699 5695 5692 5689 5688 5685 5684 5683 5681 5681 5683 5684 5686 5689 5694
5740 5742 5747 5754 5768 5765 5765 5769 5782 5788 5785 5785 5783 5781 5778 5776 5774 5770 5767 5764 5759 5753 5750 5750 5745 5739 5733 5727 5724 5720 5715 5711 5707 5704 5699 5695 5691 5687 5686 5683 5682 5681 5680 5680 5681 5682 5682 5686 5691
5747 5744 5744 5743 5757 5770 5765 5762 5776 5789 5792 5789 5787 5786 5785 5780 5774 5769 5766 5762 5758 5752 5750 5748 5743 5738 5733 5728 5723 5718 5714 5709 5705 5701 5697 5694 5691 5687 5684 5683 5681 5681 5680 5678 5679 5680 5681 5681 5686
5737 5752 5753 5752 5748 5749 5760 5741 5766 5781 5779 5781 5781 5781 5781 5781 5777 5771 5767 5761 5757 5754 5752 5749 5744 5739 5733 5727 5721 5715 5709 5704 5702 5700 5698 5695 5692 5689 5685 5682 5681 5680 5679 5678 5679 5680 5681 5681 5681
5748 5761 5760 5759 5754 5751 5760 5751 5761 5775 5768 5773 5778 5780 5780 5780 5777 5772 5767 5762 5759 5756 5751 5747 5743 5737 5731 5727 5720 5715 5710 5706 5705 5702 5698 5695 5693 5690 5687 5684 5682 5681 5680 5679 5679 5680 5681 5681 5680
5765 5762 5762 5762 5754 5736 5756 5749 5750 5766 5767 5773 5778 5780 5780 5780 5778 5773 5768 5763 5758 5754 5749 5745 5740 5735 5731 5726 5721 5716 5711 5707 5704 5701 5698 5695 5693 5691 5688 5686 5684 5682 5681 5680 5680 5680 5681 5681 5681
5760 5745 5730 5727 5725 5732 5762 5755 5755 5773 5780 5777 5777 5779 5780 5779 5775 5769 5763 5758 5754 5750 5747 5743 5738 5733 5730 5726 5722 5719 5714 5710 5706 5702 5699 5695 5693 5690 5688 5687 5684 5683 5682 5681 5681 5681 5681 5681 5681
5757 5751 5724 5706 5710 5732 5755 5752 5763 5780 5782 5782 5780 5779 5779 5776 5773 5768 5763 5758 5754 5750 5746 5742 5738 5733 5730 5726 5723 5721 5717 5712 5709 5705 5701 5698 5695 5692 5690 5688 5685 5684 5683 5682 5682 5681 5681 5682 5681
5754 5752 5759 5740 5736 5732 5749 5763 5772 5777 5775 5775 5775 5774 5773 5772 5770 5767 5764 5759 5754 5750 5746 5743 5738 5734 5731 5728 5725 5722 5719 5715 5711 5707 5704 5701 5698 5696 5692 5690 5687 5685 5684 5682 5681 5679 5679 5679 5679
5762 5757 5748 5734 5717 5711 5730 5745 5745 5755 5761 5766 5768 5767 5770 5771 5769 5767 5764 5760 5756 5752 5748 5744 5741 5736 5733 5729 5726 5723 5720 5717 5712 5708 5704 5702 5699 5696 5693 5691 5689 5687 5685 5683 5681 5680 5679 5678 5678
5752 5749 5746 5739 5735 5716 5710 5730 5764 5761 5762 5762 5764 5769 5770 5769 5768 5766 5763 5761 5758 5753 5748 5744 5741 5738 5734 5731 5727 5724 5721 5717 5714 5709 5706 5703 5700 5698 5695 5692 5690 5688 5686 5684 5681 5679 5678 5677 5677
5760 5752 5746 5725 5723 5727 5716 5730 5773 5769 5767 5766 5765 5769 5771 5771 5768 5765 5763 5760 5756 5752 5748 5745 5742 5739 5736 5733 5729 5725 5722 5719 5715 5711 5708 5705 5702 5700 5697 5693 5690 5688 5686 5684 5681 5679 5678 5677 5676